• MPC Preparation (Info)

  • MPEC 2016-O101: 2014 WG509

    The following Minor Planet Electronic Circular may be linked-to from your own Web pages, but must not otherwise be redistributed electronically.

    A form allowing access to any MPEC is at the bottom of this page.


    Read MPEC 2016-O100 Read MPEC 2016-O102


    M.P.E.C. 2016-O101                               Issued 2016 July 17, 02:40 UT
    
         The Minor Planet Electronic Circulars contain information on unusual
             minor planets and routine data on comets.  They are published
        on behalf of Division F of the International Astronomical Union by the
              Minor Planet Center, Smithsonian Astrophysical Observatory,
                              Cambridge, MA 02138, U.S.A.
    
                 Prepared using the Tamkin Foundation Computer Network
    
                                  MPC@CFA.HARVARD.EDU
                URL https://www.minorplanetcenter.net/    ISSN 1523-6714
    
                                      2014 WG509
    
    Observations:
         K14Wo9G  C2011 11 25.44337 04 05 06.106-00 20 00.95         22.0 wLEO101F51
         K14Wo9G  C2011 11 25.46101 04 05 06.020-00 20 01.24         22.1 wLEO101F51
         K14Wo9G  C2011 11 25.47573 04 05 05.948-00 20 01.35         21.9 wLEO101F51
         K14Wo9G  C2011 11 25.49027 04 05 05.880-00 20 01.53         21.9 wLEO101F51
         K14Wo9G  C2014 01 21.24203 04 10 58.077+00 33 27.28         22.3 wLEO101F51
         K14Wo9G  C2014 01 21.25491 04 10 58.053+00 33 27.27         22.1 wLEO101F51
         K14Wo9G  C2014 01 21.26786 04 10 58.019+00 33 27.64         22.2 wLEO101F51
         K14Wo9G  C2014 01 21.28092 04 10 57.992+00 33 27.87         22.0 wLEO101F51
         K14Wo9G* C2014 11 21.46662 04 19 48.607+00 53 58.43         22.0 wLEO101F51
         K14Wo9G  C2014 11 21.47881 04 19 48.552+00 53 58.40         21.9 wLEO101F51
         K14Wo9G  C2014 11 21.49096 04 19 48.495+00 53 58.18         21.9 wLEO101F51
         K14Wo9G  C2014 11 21.50307 04 19 48.434+00 53 58.05         21.8 wLEO101F51
         K14Wo9G  C2014 11 23.45778 04 19 39.215+00 53 33.76         22.1 wLEO101F51
         K14Wo9G  C2014 11 23.46992 04 19 39.178+00 53 33.59         22.0 wLEO101F51
         K14Wo9G  C2014 11 23.48208 04 19 39.092+00 53 33.64         22.2 wLEO101F51
         K14Wo9G  C2014 11 23.49426 04 19 39.002+00 53 33.24         22.2 wLEO101F51
         K14Wo9G  C2015 01 09.27023 04 16 17.287+00 54 03.42         22.3 wLEO101F51
         K14Wo9G  C2015 01 09.28332 04 16 17.252+00 54 03.50         22.0 wLEO101F51
         K14Wo9G  C2015 01 09.29644 04 16 17.209+00 54 03.74         21.9 wLEO101F51
         K14Wo9G  C2015 01 19.22539 04 15 48.022+00 56 44.22         22.2 wLEO101F51
         K14Wo9G  C2015 01 19.23745 04 15 47.990+00 56 44.21         22.3 wLEO101F51
         K14Wo9G  C2015 01 19.24954 04 15 47.954+00 56 44.52         22.3 wLEO101F51
         K14Wo9G  C2015 01 19.26164 04 15 47.922+00 56 44.84         22.2 wLEO101F51
    
    Observer details:
    F51 Pan-STARRS 1, Haleakala.  Observers B. Gibson, T. Goggia, N. Primak,
        A. Schultz, M. Willman.  Measurers K. Chambers, S. Chastel, Y.-T. Chen,
        L. Denneau, H. Flewelling, M. Holman, M. Huber, R. Jedicke, M. Lackner,
        E. Lilly, H.-W. Lin, E. Magnier, M. Micheli, M. Payne, P. Veres,
        R. Wainscoat, C. Waters, R. Weryk.  1.8-m Ritchey-Chretien + CCD.
    
    Orbital elements:
    2014 WG509
    Epoch 2016 July 31.0 TT = JDT 2457600.5                 MPC
    M 107.05632              (2000.0)            P               Q
    n   0.00356151     Peri.  178.26976     +0.61854593     +0.73413659
    a  42.4665417      Node   129.82391     -0.72521945     +0.67058794
    e   0.0807340      Incl.   21.38782     -0.30241972     -0.10656122
    P 277              H    5.5           G   0.15           U   3
    Residuals in seconds of arc
    111125 F51  0.0   0.1+    141121 F51  0.0   0.1-    150109 F51  0.1-  0.1+
    111125 F51  0.0   0.0     141121 F51  0.1+  0.0     150109 F51  0.1+  0.0
    111125 F51  0.0   0.0     141121 F51  0.1+  0.1-    150109 F51  0.1+  0.1+
    111125 F51  0.0   0.0     141121 F51  0.0   0.0     150119 F51  0.0   0.1+
    140121 F51  0.1-  0.1+    141123 F51  0.0   0.0     150119 F51  0.0   0.1-
    140121 F51  0.0   0.1-    141123 F51  0.4+  0.0     150119 F51  0.1-  0.0
    140121 F51  0.0   0.0     141123 F51  0.1-  0.2+    150119 F51  0.1-  0.1+
    140121 F51  0.1+  0.1-    141123 F51  0.5-  0.1-
    
    Ephemeris:
    2014 WG509               a,e,i = 42.47, 0.08, 21                 q = 39.038
    Date    TT    R. A. (2000) Decl.     Delta      r     Elong.  Phase     V
    2016 06 17    04 27 59.1 +02 25 04  44.6042 43.7070    27.7     0.6    22.1
    ...
    2016 07 02    04 29 20.8 +02 25 57  44.4981 43.7099    38.8     0.8    22.1
    ...
    2016 07 10    04 30 00.7 +02 25 42  44.4211 43.7114    45.3     0.9    22.1
    ...
    2016 07 16    04 30 28.4 +02 25 10  44.3550 43.7126    50.3     1.0    22.1
    2016 07 17    04 30 32.8 +02 25 04  44.3433 43.7128    51.1     1.0    22.1
    2016 07 18    04 30 37.2 +02 24 56  44.3315 43.7130    52.0     1.0    22.1
    ...
    2016 07 24    04 31 02.0 +02 24 04  44.2571 43.7141    57.1     1.1    22.1
    ...
    2016 08 01    04 31 31.3 +02 22 29  44.1494 43.7157    64.1     1.2    22.1
    ...
    2016 08 16    04 32 13.3 +02 18 25  43.9279 43.7186    77.4     1.3    22.1
    
    A. U. Tomatic                (C) Copyright 2016 MPC           M.P.E.C. 2016-O101
    

    Read MPEC 2016-O100 Read MPEC 2016-O102


    MPEC number:

    Enter an MPEC number in one of the following forms:

    • 1997-B01 (the full form)
    • J97B01 (the packed version of the full form)
    • B01 (the abbreviated form)